Home > Weather > Stuhr > Past weeks

Flag for Germany Past Weather in Stuhr, Lower Saxony, Germany — Yesterday and Last 2 Weeks

Now
55 °F

Partly sunny.


Feels Like: 55 °F
Forecast: 50 / 62 °F
Wind: 3 mph from Southwest

Location: Bremen Airport

Current Time: May 25, 2016 at 11:03:27 PM

Latest Report: May 25, 2016 at 10:20 PM


Visibility: N/A

Pressure: 30.01 "Hg

Humidity: 88%

Dew Point: 52 °F

Location of StuhrLocation

Past Weather in Stuhr — Graph

°F

Stuhr Temperature Yesterday

Maximum temperature yesterday: 55 °F (at 2:50 PM)
Minimum temperature yesterday: 52 °F (at 3:50 AM)
Average temperature yesterday: 53 °F

High & Low Weather Summary for the Past Weeks

 TemperatureHumidityPressure
High79 °F (May 22, 1:50 PM)100% (May 16, 4:50 AM)30.07 "Hg (May 16, 4:50 AM)
Low37 °F (May 16, 4:50 AM)31% (May 11, 11:50 AM)29.59 "Hg (May 12, 3:20 PM)
Average57 °F72%29.86 "Hg
* Reported May 10 10:20 PM — May 25 10:20 PM, Stuhr, Weather by CustomWeather, © 2016

Note: Actual official high and low records may vary slightly from our data, if they occured in-between our weather recording intervals... More about our weather records

Advertising

Stuhr Weather History for the Previous 24 Hours

Scroll right to see more
 ConditionsComfort  
Time TempWeatherWind HumidityBarometerVisibility
10:20 PM
Wed, May 25
55 °FPartly sunny.3 mph88%30.01 "HgN/A
9:20 PM57 °FPartly sunny.2 mph82%29.98 "HgN/A
8:50 PM57 °FPartly sunny.3 mph82%29.98 "HgN/A
8:20 PM57 °FPartly sunny.2 mph77%29.98 "HgN/A
7:50 PM57 °FPartly sunny.1 mph77%29.98 "HgN/A
7:20 PM57 °FPartly sunny.1 mph77%29.98 "HgN/A
6:50 PM57 °FPartly sunny.No wind77%29.98 "HgN/A
6:20 PM59 °FPartly sunny.No wind68%29.98 "HgN/A
5:50 PM57 °FPartly sunny.3 mph77%29.98 "HgN/A
5:20 PM57 °FPartly sunny.2 mph72%29.98 "HgN/A
4:50 PM57 °FPartly sunny.5 mph77%29.98 "HgN/A
4:20 PM57 °FPartly sunny.1 mph77%29.98 "HgN/A
3:50 PM57 °FPartly sunny.3 mph72%29.98 "HgN/A
3:20 PM57 °FPartly sunny.3 mph72%29.98 "HgN/A
2:50 PM57 °FPartly sunny.5 mph77%29.98 "HgN/A
2:20 PM55 °FPartly sunny.5 mph77%29.98 "HgN/A
1:50 PM55 °FBroken clouds.6 mph82%29.98 "HgN/A
1:20 PM55 °FBroken clouds.6 mph82%29.98 "HgN/A
12:50 PM54 °FBroken clouds.2 mph82%29.98 "HgN/A
12:20 PM54 °FOvercast.5 mph88%29.98 "HgN/A
11:50 AM52 °FOvercast.6 mph88%29.98 "HgN/A
11:20 AM52 °FLow clouds.6 mph88%29.98 "HgN/A
10:50 AM52 °FLow clouds.6 mph88%29.98 "HgN/A
10:20 AM52 °FLow clouds.5 mph88%29.98 "HgN/A
9:50 AM52 °FDrizzle. Low clouds.5 mph88%29.98 "HgN/A
9:20 AM52 °FLow clouds.5 mph88%29.98 "HgN/A
8:50 AM52 °FLow clouds.6 mph88%29.98 "HgN/A
8:20 AM52 °FLow clouds.6 mph88%29.98 "HgN/A
7:50 AM50 °FLow clouds.6 mph94%29.98 "HgN/A
7:20 AM50 °FDrizzle. Low clouds.6 mph94%29.98 "HgN/A
6:50 AM50 °FDrizzle. Overcast.9 mph88%29.95 "HgN/A
6:20 AM50 °FOvercast.8 mph88%29.95 "HgN/A
5:50 AM50 °FOvercast.9 mph88%29.95 "HgN/A
5:20 AM50 °FLow clouds.6 mph94%29.95 "HgN/A
4:50 AM50 °FLow clouds.6 mph94%29.95 "HgN/A
4:20 AM50 °FLow clouds.6 mph94%29.95 "HgN/A
3:50 AM50 °FMostly cloudy.6 mph100%29.95 "HgN/A
3:20 AM50 °FMostly cloudy.6 mph100%29.95 "Hg6 mi
2:50 AM52 °FMostly cloudy.6 mph94%29.95 "Hg6 mi
2:20 AM52 °FLow clouds.6 mph94%29.95 "Hg6 mi
1:50 AM52 °FDrizzle. Low clouds.3 mph94%29.98 "HgN/A
1:20 AM52 °FDrizzle. Low clouds.3 mph94%29.95 "HgN/A
12:50 AM52 °FOvercast.3 mph94%29.98 "HgN/A
12:20 AM52 °FLow clouds.5 mph88%29.98 "HgN/A
11:50 PM
Tue, May 24
52 °FLow clouds.6 mph88%29.95 "HgN/A
11:20 PM52 °FMostly cloudy.7 mph88%29.95 "HgN/A
Weather by CustomWeather, © 2016

See weather overviewHow to use our weather pages